This is the latest recevied weather packets stored in our database for station/object OE6ACM-10. If no packets are shown the sender has not sent any weather packets the latest 10 day(s).
| Time | Temp. | Humidity | Pressure | Rain* | Wind** | Luminosity | Snow |
|---|---|---|---|---|---|---|---|
| 1778152995 | 27.22° C | 100% | 921.9 hPa | - | - | - | - |
| 1778152695 | 27.78° C | 100% | 921.7 hPa | - | - | - | - |
| 1778152395 | 28.33° C | 100% | 921.5 hPa | - | - | - | - |
| 1778152095 | 28.89° C | 100% | 921.6 hPa | - | - | - | - |
| 1778151795 | 29.44° C | 100% | 921.5 hPa | - | - | - | - |
| 1778151495 | 30° C | 100% | 921.6 hPa | - | - | - | - |
| 1778151195 | 30° C | 100% | 921.6 hPa | - | - | - | - |
| 1778150895 | 29.44° C | 100% | 921.6 hPa | - | - | - | - |
| 1778150595 | 28.89° C | 100% | 921.7 hPa | - | - | - | - |
| 1778150295 | 28.89° C | 100% | 921.8 hPa | - | - | - | - |
| 1778149995 | 28.89° C | 100% | 921.9 hPa | - | - | - | - |
| 1778149695 | 28.89° C | 100% | 921.9 hPa | - | - | - | - |
| 1778149395 | 29.44° C | 100% | 922 hPa | - | - | - | - |
| 1778149095 | 30° C | 100% | 922 hPa | - | - | - | - |
| 1778148795 | 30° C | 100% | 922.2 hPa | - | - | - | - |
| 1778148495 | 30.56° C | 100% | 922.2 hPa | - | - | - | - |
| 1778148195 | 31.11° C | 100% | 922.2 hPa | - | - | - | - |
| 1778147895 | 31.11° C | 100% | 922.2 hPa | - | - | - | - |
| 1778147595 | 31.11° C | 100% | 922.3 hPa | - | - | - | - |
| 1778147295 | 31.67° C | 100% | 922.2 hPa | - | - | - | - |
| 1778146995 | 31.11° C | 100% | 922.3 hPa | - | - | - | - |
| 1778146695 | 31.11° C | 100% | 922.3 hPa | - | - | - | - |
| 1778146395 | 30.56° C | 100% | 922.3 hPa | - | - | - | - |
| 1778146095 | 31.11° C | 100% | 922.3 hPa | - | - | - | - |
| 1778145795 | 30.56° C | 100% | 922.3 hPa | - | - | - | - |
* Rain since midnight (hover to see other rain measurements)
** Current wind speed in m/s (hover to see current wind gust speed)